Location: Vihti�l�
(61.3833°N, 23.0667°E)
Time: 04:08:43
(UTC+00:00)

Cosmos 2263 Rocket - Pass Details

Date: 29 November 2020
Orbit: 823 x 849 km, 71.0° (Epoch: 19 January)

Event Time Altitude Azimuth Distance (km) Brightness Sun altitude
Exits shadow 04:43:40 14° 245° (WSW) 2,180 3.9 -15.6°
Maximum altitude 04:48:28 59° 323° (NW) 985 2.3 -15.1°
Drops below altitude 10° 04:54:08 10° 43° (NE) 2,488 5.0 -14.4°
Sets 04:56:38 0° 47° (NE) 3,426 5.8 -14.1°
